Preview of NWS' New Version of Forecast
This preview is not operational and should not be used for support decisions.

Regional Weather Roundup (RWR)

Issued by National Weather Service (NWS)

                            
000
ASUS43 KTOP 250159
RWRKS 

WEATHER ROUNDUP FOR KANSAS
NATIONAL WEATHER SERVICE GOODLAND KS
900 PM CDT MON JUN 24 2019

NOTE:  "FAIR" INDICATES FEW OR NO CLOUDS BELOW 12,000 FEET WITH NO
SIGNIFICANT WEATHER AND/OR OBSTRUCTIONS TO VISIBILITY.

KSZ001>006-013>018-027>032-041>047-250300-
NORTHWEST KANSAS
  
CITY           SKY/WX    TMP DP  RH WIND       PRES   REMARKS
GOODLAND       PTCLDY    77  45  32 SW10      29.86R                  
HAYS           CLEAR     78  57  48 S7        29.80S                  
HILL CITY      CLEAR     79  53  40 S5        29.79R                  
RUSSELL        CLEAR     78  54  43 S9        29.79R                  
$$

KSZ061>065-074>080-084>089-250300-
SOUTHWEST KANSAS
  
CITY           SKY/WX    TMP DP  RH WIND       PRES   REMARKS
DODGE CITY     CLEAR     75  57  53 S6        29.87S                  
GARDEN CITY    CLEAR     72  57  59 S7        29.86S                  
GREAT BEND     CLEAR     74  58  57 S9        29.83R                  
LIBERAL        CLEAR     75  57  53 S9        29.89S                  
$$

KSZ066>073-081>083-090>101-250300-
SOUTHEAST KANSAS
  
CITY           SKY/WX    TMP DP  RH WIND       PRES   REMARKS
CHANUTE        CLEAR     71  62  73 S6        29.89S                  
COFFEYVILLE    CLEAR     72  64  76 SE3       29.87S                  
HUTCHINSON     CLEAR     75  58  55 S8        29.84R                  
MEDICINE LODGE   N/A     78  56  46 S7        29.86R                  
NEWTON         CLEAR     74  60  61 S9        29.86S                  
PARSONS        CLEAR     69  64  84 CALM      29.90S                  
WICHITA INTL   CLEAR     75  58  55 S9        29.85S                  
WICHITA JABRA  CLEAR     73  57  57 S7        29.86S                  
WICHITA MCCONL CLEAR     76  59  55 SE7       29.86S                  
WINFIELD       CLEAR     72  60  66 S8        29.89R                  
$$

KSZ007>012-019>026-033>040-048>060-102>105-250300-
NORTHEAST KANSAS
  
CITY           SKY/WX    TMP DP  RH WIND       PRES   REMARKS
CONCORDIA      CLEAR     76  60  57 S10       29.78S                  
EMPORIA        CLEAR     70  62  76 S8        29.86S                  
LAWRENCE       CLEAR     72  60  66 S6        29.85R                  
MANHATTAN      CLEAR     74  61  63 S3        29.81S                  
OLATHE IND     CLEAR     71  58  63 S7        29.87S                  
OLATHE EXE     CLEAR     72  59  63 SW5       29.87R                  
SALINA         CLEAR     74  60  61 S9        29.80S                  
TOPEKA BILLARD CLEAR     76  57  51 S6        29.84R                  
TOPEKA FORBES  CLEAR     72  59  63 S7        29.85R                  
$$